• In Hungary
  • List of Countries
  • For 7 days
  • Water Temperature
  • Satellite Maps
  • Weather Map
  • News
  • Weather Widgets
  • user-avatar
    Login

    Hourly Weather Szekesfehervar

    Today, 22 September, Saturday

    Time Temperature Precipitation Wind Pressure Humidity
    00:00 +20°C° 0 mm 2 mps 749 mmHg 52%
    01:00 +20°C° 0 mm 2 mps 749 mmHg 49%
    02:00 +20°C° 0 mm 3 mps 749 mmHg 53%
    03:00 +20°C° 0 mm 4 mps 749 mmHg 57%
    04:00 +20°C° 0 mm 5 mps 750 mmHg 61%
    05:00 +19°C° 0 mm 6 mps 751 mmHg 60%
    06:00 +18°C° 0 mm 8 mps 752 mmHg 59%
    07:00 +18°C° 0 mm 9 mps 752 mmHg 58%
    08:00 +18°C° 0 mm 8 mps 753 mmHg 54%
    09:00 +17°C° 0 mm 8 mps 754 mmHg 51%
    10:00 +16°C° 0 mm 8 mps 755 mmHg 48%
    11:00 +15°C° 0.3 mm 6 mps 755 mmHg 55%
    12:00 +14°C° 0.3 mm 5 mps 755 mmHg 63%
    13:00 +13°C° 0.3 mm 4 mps 756 mmHg 70%
    14:00 +13°C° 0 mm 3 mps 756 mmHg 71%
    15:00 +13°C° 0 mm 3 mps 756 mmHg 72%
    16:00 +14°C° 0 mm 2 mps 756 mmHg 73%
    17:00 +14°C° 0 mm 2 mps 756 mmHg 73%
    18:00 +14°C° 0 mm 2 mps 756 mmHg 73%
    19:00 +14°C° 0 mm 2 mps 756 mmHg 72%
    20:00 +14°C° 0 mm 2 mps 756 mmHg 72%
    21:00 +14°C° 0 mm 2 mps 756 mmHg 71%
    22:00 +14°C° 0 mm 2 mps 756 mmHg 70%
    23:00 +14°C° 0 mm 2 mps 756 mmHg 69%

    Tomorrow, 23 September, Sunday

    Time Temperature Precipitation Wind Pressure Humidity
    00:00 +14°C° 0 mm 2 mps 756 mmHg 68%
    01:00 +14°C° 0 mm 2 mps 756 mmHg 68%
    02:00 +14°C° 0 mm 2 mps 756 mmHg 67%
    03:00 +14°C° 0 mm 1 mps 755 mmHg 66%
    04:00 +14°C° 0 mm 1 mps 755 mmHg 66%
    05:00 +14°C° 0 mm 1 mps 755 mmHg 65%
    06:00 +15°C° 0 mm 1 mps 755 mmHg 65%
    07:00 +15°C° 0 mm 2 mps 755 mmHg 64%
    08:00 +16°C° 0 mm 2 mps 755 mmHg 57%
    09:00 +18°C° 0 mm 3 mps 755 mmHg 49%
    10:00 +19°C° 0 mm 3 mps 755 mmHg 42%
    11:00 +21°C° 0 mm 4 mps 754 mmHg 39%
    12:00 +22°C° 0 mm 4 mps 754 mmHg 37%
    13:00 +23°C° 0 mm 4 mps 753 mmHg 34%
    14:00 +23°C° 0 mm 4 mps 752 mmHg 36%
    15:00 +23°C° 0 mm 4 mps 751 mmHg 39%
    16:00 +24°C° 0 mm 3 mps 751 mmHg 41%
    17:00 +22°C° 0 mm 3 mps 750 mmHg 46%
    18:00 +21°C° 0 mm 3 mps 750 mmHg 51%
    19:00 +20°C° 0 mm 3 mps 749 mmHg 56%
    20:00 +20°C° 0 mm 3 mps 749 mmHg 58%
    21:00 +20°C° 0 mm 4 mps 748 mmHg 60%
    22:00 +20°C° 0 mm 4 mps 748 mmHg 62%
    23:00 +21°C° 0 mm 4 mps 747 mmHg 63%

    Day after tomorrow, 24 September, Monday

    Time Temperature Precipitation Wind Pressure Humidity
    00:00 +21°C° 0 mm 5 mps 746 mmHg 65%
    01:00 +22°C° 0 mm 5 mps 745 mmHg 66%
    02:00 +21°C° 0.9 mm 7 mps 746 mmHg 67%
    03:00 +20°C° 0.9 mm 8 mps 747 mmHg 67%
    04:00 +18°C° 0.9 mm 10 mps 747 mmHg 68%
    05:00 +16°C° 0.2 mm 10 mps 749 mmHg 67%
    06:00 +13°C° 0.2 mm 11 mps 750 mmHg 65%
    07:00 +12°C° 0.2 mm 11 mps 752 mmHg 64%
    08:00 +12°C° 0 mm 10 mps 753 mmHg 61%
    09:00 +12°C° 0 mm 9 mps 754 mmHg 57%
    10:00 +13°C° 0 mm 9 mps 756 mmHg 54%
    11:00 +15°C° 0 mm 9 mps 756 mmHg 48%
    12:00 +16°C° 0 mm 9 mps 757 mmHg 42%
    13:00 +17°C° 0 mm 9 mps 757 mmHg 36%
    14:00 +17°C° 0 mm 8 mps 758 mmHg 36%
    15:00 +16°C° 0 mm 8 mps 758 mmHg 36%
    16:00 +16°C° 0 mm 7 mps 758 mmHg 36%
    17:00 +15°C° 0 mm 6 mps 758 mmHg 40%
    18:00 +13°C° 0 mm 5 mps 759 mmHg 43%
    19:00 +12°C° 0 mm 4 mps 760 mmHg 47%
    20:00 +12°C° 0 mm 4 mps 760 mmHg 48%
    21:00 +11°C° 0 mm 4 mps 761 mmHg 50%
    22:00 +10°C° 0 mm 4 mps 761 mmHg 51%
    23:00 +10°C° 0 mm 4 mps 761 mmHg 53%

    25 September, Tuesday

    Time Temperature Precipitation Wind Pressure Humidity
    00:00 +8°C° 0 mm 4 mps 762 mmHg 55%
    01:00 +8°C° 0 mm 4 mps 762 mmHg 57%
    02:00 +8°C° 0 mm 4 mps 762 mmHg 60%
    03:00 +7°C° 0 mm 4 mps 762 mmHg 62%
    04:00 +7°C° 0 mm 4 mps 762 mmHg 65%
    05:00 +7°C° 0 mm 5 mps 763 mmHg 64%
    06:00 +7°C° 0 mm 5 mps 763 mmHg 64%
    07:00 +8°C° 0 mm 5 mps 764 mmHg 63%
    08:00 +9°C° 0 mm 6 mps 764 mmHg 55%
    09:00 +11°C° 0 mm 6 mps 764 mmHg 48%
    10:00 +13°C° 0 mm 6 mps 765 mmHg 40%
    11:00 +14°C° 0 mm 6 mps 765 mmHg 39%
    12:00 +14°C° 0 mm 6 mps 765 mmHg 37%
    13:00 +15°C° 0 mm 6 mps 764 mmHg 36%
    14:00 +15°C° 0 mm 5 mps 764 mmHg 36%
    15:00 +15°C° 0 mm 5 mps 764 mmHg 36%
    16:00 +15°C° 0 mm 5 mps 764 mmHg 37%
    17:00 +13°C° 0 mm 4 mps 765 mmHg 41%
    18:00 +12°C° 0 mm 4 mps 765 mmHg 45%
    19:00 +10°C° 0 mm 3 mps 766 mmHg 50%
    20:00 +10°C° 0 mm 3 mps 766 mmHg 51%
    21:00 +9°C° 0 mm 3 mps 767 mmHg 53%
    22:00 +8°C° 0 mm 2 mps 767 mmHg 55%
    23:00 +8°C° 0 mm 2 mps 767 mmHg 56%

    26 September, Wednesday

    Time Temperature Precipitation Wind Pressure Humidity
    00:00 +8°C° 0 mm 2 mps 768 mmHg 57%
    01:00 +7°C° 0 mm 2 mps 768 mmHg 57%
    02:00 +7°C° 0 mm 2 mps 768 mmHg 57%
    03:00 +7°C° 0 mm 2 mps 768 mmHg 57%
    04:00 +7°C° 0 mm 1 mps 767 mmHg 56%
    05:00 +8°C° 0 mm 1 mps 767 mmHg 54%
    06:00 +8°C° 0 mm 1 mps 768 mmHg 52%
    07:00 +8°C° 0 mm 2 mps 768 mmHg 50%
    08:00 +10°C° 0 mm 2 mps 767 mmHg 44%
    09:00 +12°C° 0 mm 3 mps 767 mmHg 39%
    10:00 +14°C° 0 mm 4 mps 767 mmHg 33%
    11:00 +16°C° 0 mm 3 mps 767 mmHg 31%
    12:00 +17°C° 0 mm 3 mps 766 mmHg 29%
    13:00 +18°C° 0 mm 3 mps 765 mmHg 26%
    14:00 +18°C° 0 mm 3 mps 765 mmHg 26%
    15:00 +18°C° 0 mm 3 mps 764 mmHg 26%
    16:00 +18°C° 0 mm 3 mps 763 mmHg 26%
    17:00 +16°C° 0 mm 3 mps 763 mmHg 30%
    18:00 +15°C° 0 mm 2 mps 763 mmHg 33%
    19:00 +13°C° 0 mm 2 mps 763 mmHg 37%
    20:00 +12°C° 0 mm 2 mps 763 mmHg 38%
    21:00 +12°C° 0 mm 2 mps 763 mmHg 39%
    22:00 +10°C° 0 mm 2 mps 763 mmHg 40%
    23:00 +10°C° 0 mm 2 mps 763 mmHg 40%

    27 September, Thursday

    Time Temperature Precipitation Wind Pressure Humidity
    00:00 +9°C° 0 mm 2 mps 762 mmHg 41%
    01:00 +9°C° 0 mm 2 mps 762 mmHg 41%
    02:00 +9°C° 0 mm 2 mps 762 mmHg 42%
    03:00 +8°C° 0 mm 2 mps 761 mmHg 43%
    04:00 +8°C° 0 mm 2 mps 761 mmHg 44%
    05:00 +9°C° 0 mm 2 mps 761 mmHg 43%
    06:00 +9°C° 0 mm 2 mps 761 mmHg 43%
    07:00 +10°C° 0 mm 2 mps 761 mmHg 43%
    08:00 +13°C° 0 mm 2 mps 760 mmHg 38%
    09:00 +16°C° 0 mm 2 mps 760 mmHg 34%
    10:00 +18°C° 0 mm 2 mps 760 mmHg 29%
    11:00 +20°C° 0 mm 2 mps 759 mmHg 28%
    12:00 +21°C° 0 mm 2 mps 759 mmHg 26%
    13:00 +23°C° 0 mm 2 mps 758 mmHg 25%
    14:00 +24°C° 0 mm 2 mps 757 mmHg 25%
    15:00 +24°C° 0 mm 2 mps 756 mmHg 26%
    16:00 +24°C° 0 mm 2 mps 756 mmHg 26%
    17:00 +21°C° 0 mm 2 mps 755 mmHg 29%
    18:00 +18°C° 0 mm 2 mps 755 mmHg 32%
    19:00 +16°C° 0 mm 2 mps 755 mmHg 35%
    20:00 +16°C° 0 mm 2 mps 755 mmHg 36%
    21:00 +15°C° 0 mm 2 mps 755 mmHg 36%
    22:00 +14°C° 0 mm 2 mps 755 mmHg 36%
    23:00 +14°C° 0 mm 2 mps 755 mmHg 38%
    Show more